1 Minute Report
Date Time Wind Direction Wind Speed Wind Gust Wind Variable Altimeter Temperature Dewpoint Relative Humidity Visibility Ceiling Precip Present Weather Density Alt Wind Chill Heat Index
17/09/20 13:03 000 00 N/A N/A 30.06 69(F), 21(C) 65(F), 18(C) 83% 1/2 OVC002 N/A Fog N/A 69 F N/A 93
17/09/20 13:02 000 00 N/A N/A 30.06 68(F), 20(C) 64(F), 18(C) 88% 1/2 OVC002 N/A Fog N/A 68 F N/A 92
17/09/20 13:01 000 00 N/A N/A 30.06 68(F), 20(C) 64(F), 18(C) 88% 1/4 OVC002 N/A Fog N/A 68 F N/A 91
17/09/20 13:00 000 00 N/A N/A 30.06 68(F), 20(C) 65(F), 18(C) 88% 1/4 OVC002 N/A Fog N/A 68 F N/A 90
17/09/20 12:59 000 00 N/A N/A 30.06 68(F), 20(C) 65(F), 18(C) 88% 1/4 OVC002 N/A Fog N/A 68 F N/A 89
17/09/20 12:58 000 00 N/A N/A 30.06 68(F), 20(C) 65(F), 18(C) 88% 1/4 OVC002 N/A Fog N/A 68 F N/A 88
17/09/20 12:57 000 00 N/A N/A 30.05 68(F), 20(C) 65(F), 18(C) 88% 1/4 OVC002 N/A Fog N/A 68 F N/A 87
17/09/20 12:56 000 00 N/A N/A 30.05 68(F), 20(C) 64(F), 18(C) 88% 1/4 OVC002 N/A Fog N/A 68 F N/A 86
17/09/20 12:55 000 00 N/A N/A 30.05 67(F), 19(C) 64(F), 18(C) 94% 1/4 OVC002 N/A Fog N/A 67 F N/A 85
17/09/20 12:54 000 00 N/A N/A 30.05 67(F), 19(C) 64(F), 18(C) 94% 1/4 OVC002 N/A Fog N/A 67 F N/A 84
17/09/20 12:53 000 00 N/A N/A 30.05 67(F), 19(C) 63(F), 17(C) 88% 1/4 OVC002 N/A Fog N/A 67 F N/A 83
17/09/20 12:52 000 00 N/A N/A 30.05 67(F), 19(C) 63(F), 17(C) 88% 1/4 OVC002 N/A Fog N/A 67 F N/A 82
17/09/20 12:51 000 00 N/A N/A 30.05 67(F), 19(C) 63(F), 17(C) 88% 1/4 OVC002 N/A Fog N/A 67 F N/A 81
17/09/20 12:50 000 00 N/A N/A 30.05 67(F), 19(C) 63(F), 17(C) 88% 1/4 OVC002 N/A Fog N/A 67 F N/A 80
17/09/20 12:49 000 00 N/A N/A 30.05 67(F), 19(C) 63(F), 17(C) 88% 1/4 OVC002 N/A Fog N/A 67 F N/A 79
17/09/20 12:48 000 00 N/A N/A 30.05 67(F), 19(C) 63(F), 17(C) 88% 1/4 OVC002 N/A Fog N/A 67 F N/A 78
17/09/20 12:47 000 00 N/A N/A 30.05 67(F), 19(C) 63(F), 17(C) 88% 1/4 OVC002 N/A Fog N/A 67 F N/A 77
17/09/20 12:46 000 00 N/A N/A 30.05 67(F), 19(C) 63(F), 17(C) 88% 1/4 OVC002 N/A Fog N/A 67 F N/A 76
17/09/20 12:45 000 00 N/A N/A 30.05 67(F), 19(C) 63(F), 17(C) 88% 1/4 OVC002 N/A Fog N/A 67 F N/A 75
17/09/20 12:44 000 00 N/A N/A 30.05 67(F), 19(C) 63(F), 17(C) 88% 1/4 OVC002 N/A Fog N/A 67 F N/A 74
17/09/20 12:43 000 00 N/A N/A 30.05 67(F), 19(C) 63(F), 17(C) 88% 1/4 OVC002 N/A Fog N/A 67 F N/A 73
17/09/20 12:42 000 00 N/A N/A 30.05 67(F), 19(C) 63(F), 17(C) 88% 1/4 OVC002 N/A Fog N/A 67 F N/A 72
17/09/20 12:41 000 00 N/A N/A 30.05 67(F), 19(C) 63(F), 17(C) 88% M1/4 OVC002 N/A Fog N/A 67 F N/A 71
17/09/20 12:40 000 00 N/A N/A 30.05 67(F), 19(C) 63(F), 17(C) 88% M1/4 OVC002 N/A Fog N/A 67 F N/A 70
17/09/20 12:39 000 00 N/A N/A 30.05 67(F), 19(C) 63(F), 17(C) 88% M1/4 OVC002 N/A Fog N/A 67 F N/A 69
17/09/20 12:38 000 00 N/A N/A 30.05 67(F), 19(C) 63(F), 17(C) 88% M1/4 OVC002 N/A Fog N/A 67 F N/A 68
17/09/20 12:37 000 00 N/A N/A 30.05 67(F), 19(C) 63(F), 17(C) 88% M1/4 OVC002 N/A Fog N/A 67 F N/A 67
17/09/20 12:36 000 00 N/A N/A 30.05 67(F), 19(C) 63(F), 17(C) 88% M1/4 OVC002 N/A Fog N/A 67 F N/A 66
17/09/20 12:35 000 00 N/A N/A 30.05 67(F), 19(C) 63(F), 17(C) 88% M1/4 OVC002 N/A Fog N/A 67 F N/A 65
17/09/20 12:34 000 00 N/A N/A 30.05 67(F), 19(C) 63(F), 17(C) 88% M1/4 OVC002 N/A Fog N/A 67 F N/A 64
17/09/20 12:33 000 00 N/A N/A 30.05 67(F), 19(C) 63(F), 17(C) 88% M1/4 OVC002 N/A Fog N/A 67 F N/A 63
17/09/20 12:32 000 00 N/A N/A 30.05 67(F), 19(C) 63(F), 17(C) 88% M1/4 OVC002 N/A Fog N/A 67 F N/A 62
17/09/20 12:31 000 00 N/A N/A 30.05 67(F), 19(C) 63(F), 17(C) 88% M1/4 OVC002 N/A Fog N/A 67 F N/A 61
17/09/20 12:30 000 00 N/A N/A 30.05 67(F), 19(C) 63(F), 17(C) 88% M1/4 OVC002 N/A Fog N/A 67 F N/A 60
17/09/20 12:29 000 00 N/A N/A 30.05 67(F), 19(C) 63(F), 17(C) 88% M1/4 OVC002 N/A Fog N/A 67 F N/A 59
17/09/20 12:28 000 00 N/A N/A 30.05 67(F), 19(C) 63(F), 17(C) 88% M1/4 OVC002 N/A Fog N/A 67 F N/A 58
17/09/20 12:27 000 00 N/A N/A 30.05 66(F), 19(C) 62(F), 17(C) 88% M1/4 OVC002 N/A Fog N/A 66 F N/A 57
17/09/20 12:26 000 00 N/A N/A 30.05 66(F), 19(C) 62(F), 17(C) 88% M1/4 OVC002 N/A Fog N/A 66 F N/A 56
17/09/20 12:25 000 00 N/A N/A 30.05 65(F), 18(C) 61(F), 16(C) 88% M1/4 OVC002 N/A Fog N/A 65 F N/A 55
17/09/20 12:24 000 00 N/A N/A 30.05 65(F), 18(C) 61(F), 16(C) 88% M1/4 OVC002 N/A Fog N/A 65 F N/A 54
17/09/20 12:23 000 00 N/A N/A 30.05 64(F), 18(C) 61(F), 16(C) 88% M1/4 OVC002 N/A Fog N/A 64 F N/A 53
17/09/20 12:22 000 00 N/A N/A 30.05 64(F), 18(C) 61(F), 16(C) 88% M1/4 OVC002 N/A Fog N/A 64 F N/A 52
17/09/20 12:21 000 00 N/A N/A 30.05 64(F), 18(C) 61(F), 16(C) 88% M1/4 OVC002 N/A Fog N/A 64 F N/A 51
17/09/20 12:20 000 00 N/A N/A 30.05 64(F), 18(C) 61(F), 16(C) 88% M1/4 OVC002 N/A Fog N/A 64 F N/A 50
17/09/20 12:19 000 00 N/A N/A 30.05 64(F), 18(C) 61(F), 16(C) 88% M1/4 OVC002 N/A Fog N/A 64 F N/A 49
17/09/20 12:18 000 00 N/A N/A 30.05 64(F), 18(C) 61(F), 16(C) 88% M1/4 OVC002 N/A Fog N/A 64 F N/A 48
17/09/20 12:17 000 00 N/A N/A 30.05 64(F), 18(C) 61(F), 16(C) 88% M1/4 OVC002 N/A Fog N/A 64 F N/A 47
17/09/20 12:16 000 00 N/A N/A 30.05 64(F), 18(C) 61(F), 16(C) 88% M1/4 OVC002 N/A Fog N/A 64 F N/A 46
17/09/20 12:15 000 00 N/A N/A 30.05 64(F), 18(C) 61(F), 16(C) 88% M1/4 OVC002 N/A Fog N/A 64 F N/A 45
17/09/20 12:14 000 00 N/A N/A 30.05 64(F), 18(C) 61(F), 16(C) 88% M1/4 OVC002 N/A Fog N/A 64 F N/A 44
17/09/20 12:13 000 00 N/A N/A 30.05 64(F), 18(C) 61(F), 16(C) 88% M1/4 OVC002 N/A Fog N/A 64 F N/A 43
17/09/20 12:12 000 00 N/A N/A 30.05 64(F), 18(C) 61(F), 16(C) 88% M1/4 OVC002 N/A Fog N/A 64 F N/A 42
17/09/20 12:11 000 00 N/A N/A 30.05 64(F), 18(C) 61(F), 16(C) 88% M1/4 OVC002 N/A Fog N/A 64 F N/A 41
17/09/20 12:10 000 00 N/A N/A 30.05 64(F), 18(C) 61(F), 16(C) 88% M1/4 OVC002 N/A Fog N/A 64 F N/A 40
17/09/20 12:09 000 00 N/A N/A 30.05 64(F), 18(C) 61(F), 16(C) 88% M1/4 OVC002 N/A Fog N/A 64 F N/A 39
17/09/20 12:08 000 00 N/A N/A 30.05 64(F), 18(C) 61(F), 16(C) 88% M1/4 OVC002 N/A Fog N/A 64 F N/A 38
17/09/20 12:07 000 00 N/A N/A 30.05 64(F), 18(C) 61(F), 16(C) 88% M1/4 OVC002 N/A Fog N/A 64 F N/A 37
17/09/20 12:06 000 00 N/A N/A 30.05 64(F), 18(C) 61(F), 16(C) 88% M1/4 OVC002 N/A Fog N/A 64 F N/A 36
17/09/20 12:05 000 00 N/A N/A 30.05 64(F), 18(C) 61(F), 16(C) 88% M1/4 OVC002 N/A Fog N/A 64 F N/A 35
17/09/20 12:04 000 00 N/A N/A 30.05 64(F), 18(C) 61(F), 16(C) 88% M1/4 OVC002 N/A Fog N/A 64 F N/A 34
17/09/20 12:03 000 00 N/A N/A 30.05 64(F), 18(C) 61(F), 16(C) 88% M1/4 OVC002 N/A Fog N/A 64 F N/A 33
17/09/20 12:02 000 00 N/A N/A 30.05 64(F), 18(C) 61(F), 16(C) 88% M1/4 OVC002 N/A Fog N/A 64 F N/A 32
17/09/20 12:01 000 00 N/A N/A 30.05 64(F), 18(C) 61(F), 16(C) 88% M1/4 OVC002 N/A Fog N/A 64 F N/A 31
17/09/20 12:00 000 00 N/A N/A 30.05 64(F), 18(C) 61(F), 16(C) 88% M1/4 OVC002 N/A Fog N/A 64 F N/A 30
17/09/20 11:59 000 00 N/A N/A 30.05 64(F), 18(C) 61(F), 16(C) 88% M1/4 OVC002 N/A Fog N/A 64 F N/A 29
17/09/20 11:58 000 00 N/A N/A 30.05 64(F), 18(C) 61(F), 16(C) 88% M1/4 OVC002 N/A Fog N/A 64 F N/A 28
17/09/20 11:57 000 00 N/A N/A 30.05 64(F), 18(C) 61(F), 16(C) 88% M1/4 OVC002 N/A Fog N/A 64 F N/A 27
17/09/20 11:56 000 00 N/A N/A 30.05 64(F), 18(C) 61(F), 16(C) 88% M1/4 OVC002 N/A Fog N/A 64 F N/A 26
17/09/20 11:55 000 00 N/A N/A 30.05 64(F), 18(C) 61(F), 16(C) 88% M1/4 OVC002 N/A Fog N/A 64 F N/A 25
17/09/20 11:54 000 00 N/A N/A 30.05 64(F), 18(C) 61(F), 16(C) 88% M1/4 OVC002 N/A Fog N/A 64 F N/A 24
17/09/20 11:53 000 00 N/A N/A 30.05 64(F), 18(C) 61(F), 16(C) 88% M1/4 OVC002 N/A Fog N/A 64 F N/A 23
17/09/20 11:52 000 00 N/A N/A 30.05 64(F), 18(C) 61(F), 16(C) 88% M1/4 OVC002 N/A Fog N/A 64 F N/A 22
17/09/20 11:51 000 00 N/A N/A 30.05 64(F), 18(C) 61(F), 16(C) 88% M1/4 OVC002 N/A Fog N/A 64 F N/A 21
17/09/20 11:50 000 00 N/A N/A 30.04 64(F), 18(C) 61(F), 16(C) 88% M1/4 OVC002 N/A Fog N/A 64 F N/A 20
17/09/20 11:49 000 00 N/A N/A 30.04 64(F), 18(C) 61(F), 16(C) 88% M1/4 OVC002 N/A Fog N/A 64 F N/A 19
17/09/20 11:48 000 00 N/A N/A 30.04 64(F), 18(C) 61(F), 16(C) 88% M1/4 OVC002 N/A Fog N/A 64 F N/A 18
17/09/20 11:47 000 00 N/A N/A 30.04 64(F), 18(C) 61(F), 16(C) 88% M1/4 OVC002 N/A Fog N/A 64 F N/A 17
17/09/20 11:46 000 00 N/A N/A 30.04 64(F), 18(C) 61(F), 16(C) 88% M1/4 OVC002 N/A Fog N/A 64 F N/A 16
17/09/20 11:45 000 00 N/A N/A 30.04 64(F), 18(C) 61(F), 16(C) 88% M1/4 OVC002 N/A Fog N/A 64 F N/A 15
17/09/20 11:44 000 00 N/A N/A 30.04 64(F), 18(C) 61(F), 16(C) 88% M1/4 OVC002 N/A Fog N/A 64 F N/A 14
17/09/20 11:43 000 00 N/A N/A 30.04 64(F), 18(C) 61(F), 16(C) 88% M1/4 OVC002 N/A Fog N/A 64 F N/A 13
17/09/20 11:42 000 00 N/A N/A 30.04 64(F), 18(C) 61(F), 16(C) 88% M1/4 OVC002 N/A Fog N/A 64 F N/A 12
17/09/20 11:41 000 00 N/A N/A 30.04 64(F), 18(C) 61(F), 16(C) 88% M1/4 OVC002 N/A Fog N/A 64 F N/A 11
17/09/20 11:40 000 00 N/A N/A 30.04 64(F), 18(C) 61(F), 16(C) 88% M1/4 OVC002 N/A Fog N/A 64 F N/A 10
17/09/20 11:39 000 00 N/A N/A 30.04 64(F), 18(C) 61(F), 16(C) 88% M1/4 OVC002 N/A Fog N/A 64 F N/A 9
17/09/20 11:38 000 00 N/A N/A 30.04 64(F), 18(C) 61(F), 16(C) 88% M1/4 OVC002 N/A Fog N/A 64 F N/A 8
17/09/20 11:37 000 00 N/A N/A 30.04 64(F), 18(C) 61(F), 16(C) 88% M1/4 OVC002 N/A Fog N/A 64 F N/A 7
17/09/20 11:36 000 00 N/A N/A 30.04 64(F), 18(C) 61(F), 16(C) 88% M1/4 OVC002 N/A Fog N/A 64 F N/A 6
17/09/20 11:35 000 00 N/A N/A 30.04 64(F), 18(C) 61(F), 16(C) 88% M1/4 OVC002 N/A Fog N/A 64 F N/A 5
17/09/20 11:34 000 00 N/A N/A 30.04 64(F), 18(C) 61(F), 16(C) 88% M1/4 OVC002 N/A Fog N/A 64 F N/A 4
17/09/20 11:33 000 00 N/A N/A 30.04 64(F), 18(C) 61(F), 16(C) 88% M1/4 OVC002 N/A Fog N/A 64 F N/A 3
17/09/20 11:32 000 00 N/A N/A 30.04 64(F), 18(C) 61(F), 16(C) 88% M1/4 OVC002 N/A Fog N/A 64 F N/A 2
17/09/20 11:31 000 00 N/A N/A 30.04 64(F), 18(C) 61(F), 16(C) 88% M1/4 OVC002 N/A Fog N/A 64 F N/A 1
17/09/20 11:30 000 00 N/A N/A 30.03 64(F), 18(C) 61(F), 16(C) 88% M1/4 OVC002 N/A Fog N/A 64 F N/A 0
17/09/20 11:29 000 00 N/A N/A 30.03 64(F), 18(C) 61(F), 16(C) 88% M1/4 OVC002 N/A Fog N/A 64 F N/A 8999
17/09/20 11:28 000 00 N/A N/A 30.03 64(F), 18(C) 61(F), 16(C) 88% M1/4 OVC002 N/A Fog N/A 64 F N/A 8998
17/09/20 11:27 000 00 N/A N/A 30.03 64(F), 18(C) 61(F), 16(C) 88% M1/4 OVC002 N/A Fog N/A 64 F N/A 8997
17/09/20 11:26 000 00 N/A N/A 30.03 64(F), 18(C) 61(F), 16(C) 88% M1/4 OVC002 N/A Fog N/A 64 F N/A 8996
17/09/20 11:25 000 00 N/A N/A 30.03 64(F), 18(C) 61(F), 16(C) 88% M1/4 OVC002 N/A Fog N/A 64 F N/A 8995
17/09/20 11:24 000 00 N/A N/A 30.03 64(F), 18(C) 61(F), 16(C) 88% M1/4 OVC002 N/A Fog N/A 64 F N/A 8994
17/09/20 11:23 000 00 N/A N/A 30.03 64(F), 18(C) 61(F), 16(C) 88% M1/4 OVC002 N/A Fog N/A 64 F N/A 8993
17/09/20 11:22 000 00 N/A N/A 30.03 64(F), 18(C) 61(F), 16(C) 88% M1/4 OVC002 N/A Fog N/A 64 F N/A 8992
17/09/20 11:21 000 00 N/A N/A 30.03 64(F), 18(C) 61(F), 16(C) 88% M1/4 OVC002 N/A Fog N/A 64 F N/A 8991
17/09/20 11:20 000 00 N/A N/A 30.03 64(F), 18(C) 61(F), 16(C) 88% M1/4 OVC002 N/A Fog N/A 64 F N/A 8990
17/09/20 11:19 000 00 N/A N/A 30.03 64(F), 18(C) 61(F), 16(C) 88% M1/4 OVC002 N/A Fog N/A 64 F N/A 8989
17/09/20 11:18 000 00 N/A N/A 30.03 64(F), 18(C) 60(F), 16(C) 88% M1/4 OVC002 N/A Fog N/A 64 F N/A 8988
17/09/20 11:17 000 00 N/A N/A 30.03 64(F), 18(C) 60(F), 16(C) 88% M1/4 OVC002 N/A Fog N/A 64 F N/A 8987
17/09/20 11:16 000 00 N/A N/A 30.03 63(F), 17(C) 60(F), 16(C) 94% M1/4 OVC002 N/A Fog N/A 63 F N/A 8986
17/09/20 11:15 000 00 N/A N/A 30.03 63(F), 17(C) 60(F), 16(C) 94% M1/4 OVC002 N/A Fog N/A 63 F N/A 8985
17/09/20 11:14 000 00 N/A N/A 30.03 63(F), 17(C) 60(F), 16(C) 94% M1/4 OVC002 N/A Fog N/A 63 F N/A 8984
17/09/20 11:13 000 00 N/A N/A 30.03 63(F), 17(C) 60(F), 16(C) 94% M1/4 OVC002 N/A Fog N/A 63 F N/A 8983
17/09/20 11:12 000 00 N/A N/A 30.03 63(F), 17(C) 60(F), 16(C) 94% M1/4 OVC002 N/A Fog N/A 63 F N/A 8982
17/09/20 11:11 000 00 N/A N/A 30.03 63(F), 17(C) 60(F), 16(C) 94% M1/4 OVC002 N/A Fog N/A 63 F N/A 8981
17/09/20 11:10 000 00 N/A N/A 30.03 63(F), 17(C) 60(F), 16(C) 94% M1/4 OVC002 N/A Fog N/A 63 F N/A 8980
17/09/20 11:09 000 00 N/A N/A 30.03 63(F), 17(C) 60(F), 16(C) 94% M1/4 OVC002 N/A Fog N/A 63 F N/A 8979
17/09/20 11:08 000 00 N/A N/A 30.03 63(F), 17(C) 60(F), 16(C) 94% M1/4 OVC002 N/A Fog N/A 63 F N/A 8978
17/09/20 11:07 000 00 N/A N/A 30.03 63(F), 17(C) 60(F), 16(C) 94% M1/4 OVC002 N/A Fog N/A 63 F N/A 8977
17/09/20 11:06 000 00 N/A N/A 30.03 63(F), 17(C) 60(F), 16(C) 94% M1/4 OVC002 N/A Fog N/A 63 F N/A 8976
17/09/20 11:05 000 00 N/A N/A 30.02 63(F), 17(C) 59(F), 15(C) 88% M1/4 OVC002 N/A Fog N/A 63 F N/A 8975
17/09/20 11:04 000 00 N/A N/A 30.02 63(F), 17(C) 59(F), 15(C) 88% M1/4 OVC002 N/A Fog N/A 63 F N/A 8974
17/09/20 11:03 000 00 N/A N/A 30.03 63(F), 17(C) 59(F), 15(C) 88% M1/4 OVC002 N/A Fog N/A 63 F N/A 8973